RH
62 62 62 61 59 57 57 56 56 55 53 53 52 49 47 46 46 45 44 41 40 40 40 41 41 40 38 37 35 33 32 30 28 22 17 17 17 17 17 19 20 21 23 24 25 23 20 20 22 28 32 38 44 50 55 56 57 63 67 68 65 62 67 72 77 82 78 75 75 74 72 70 70 72 75 75 72 74 77 79 79 78 78 82 83 78 76 77
60 61 62 61 59 56 56 54 51 51 50 50 48 44 43 43 43 42 43 43 41 40 40 41 41 42 41 39 38 36 35 33 32 28 23 20 18 18 19 21 21 22 23 23 23 22 22 21 21 26 29 34 41 47 51 55 56 57 61 64 61 58 64 69 73 81 83 83 81 78 78 76 73 72 74 74 72 73 75 78 83 85 84 84 85 81 77 77
59 59 60 59 57 54 55 51 48 48 46 45 42 40 40 39 39 39 40 40 41 40 39 39 39 41 41 41 40 39 38 37 36 33 30 25 22 25 27 25 22 23 24 23 22 22 22 22 19 23 28 31 39 46 48 52 55 53 57 61 59 55 59 64 69 76 81 84 84 81 80 80 79 75 73 72 72 72 71 75 81 87 88 85 85 83 78 78
58 59 59 58 56 53 53 49 44 43 41 40 39 39 38 37 36 35 36 37 39 40 39 39 38 39 40 42 42 42 43 41 42 40 36 31 26 33 39 30 22 22 25 25 24 22 22 23 21 24 28 29 36 44 44 47 51 52 54 56 58 58 57 58 60 67 73 77 81 84 83 80 80 79 77 75 73 73 75 78 78 82 87 83 83 85 79 78
60 60 60 60 58 55 53 47 42 39 38 37 37 37 37 36 35 34 34 35 36 38 39 39 39 39 38 41 42 44 46 43 47 48 40 37 35 41 46 34 23 23 26 26 26 23 22 25 25 26 26 24 31 42 42 41 44 49 52 53 56 60 60 57 55 57 62 69 76 81 83 81 80 79 79 77 74 74 80 85 81 80 83 80 80 88 85 79
63 62 62 61 58 56 54 47 42 39 37 36 36 37 36 36 35 34 34 34 35 36 38 39 40 40 39 40 41 44 47 45 52 56 47 46 50 53 49 35 26 25 26 28 28 24 24 28 26 24 24 21 24 35 39 38 41 44 48 52 55 58 61 60 59 58 58 61 68 72 76 78 77 77 77 79 77 75 78 84 85 81 80 78 79 88 89 83
65 64 63 61 57 55 51 45 42 40 37 36 36 35 36 36 35 35 35 34 35 35 36 38 39 41 41 42 42 44 48 48 52 57 55 54 56 58 50 39 32 30 30 29 28 26 27 30 27 23 23 22 21 26 34 39 41 41 44 47 50 55 58 60 63 64 62 60 62 65 68 71 72 73 74 79 82 80 78 80 86 85 80 79 81 87 90 87
66 64 63 61 58 53 47 43 41 39 36 36 36 35 35 35 35 35 35 34 34 35 35 36 37 39 40 43 44 46 48 49 51 54 55 55 54 55 53 46 39 34 33 30 29 29 31 31 29 26 23 22 22 24 29 34 36 38 41 43 44 47 49 53 58 60 63 62 61 63 64 65 69 71 72 76 80 83 82 80 84 89 87 84 85 89 90 89
66 64 63 61 58 53 46 42 41 38 36 37 36 36 36 36 36 36 35 34 33 34 35 35 36 37 38 41 43 46 47 48 49 52 54 56 55 52 50 46 40 36 34 33 34 32 32 32 30 29 26 24 25 24 26 32 37 33 35 41 41 41 41 44 48 49 53 56 57 60 61 61 63 66 68 70 73 78 84 85 84 89 93 93 91 89 89 89
67 63 62 60 57 52 45 41 40 38 36 35 36 36 35 36 37 37 36 34 33 33 33 34 35 36 37 39 40 43 46 48 49 52 55 58 56 51 48 46 41 38 37 36 38 36 34 33 32 32 29 27 28 26 25 30 35 32 30 36 37 37 37 37 40 41 42 46 48 52 57 57 55 59 63 65 68 72 80 86 86 89 95 98 95 90 89 89
67 62 60 58 53 48 43 40 38 37 35 35 35 34 34 35 36 37 37 35 34 34 33 33 34 36 37 39 41 42 45 49 50 52 55 58 58 54 52 50 44 41 41 40 39 38 37 34 34 34 30 29 29 28 27 27 28 29 27 29 30 31 31 31 33 35 38 41 41 44 50 49 46 52 58 61 65 69 76 84 88 91 95 96 95 92 90 88
68 63 59 54 48 45 42 40 38 36 36 36 36 35 34 34 35 35 36 36 36 35 34 34 34 36 37 39 43 45 45 48 50 50 52 57 59 58 57 54 49 44 43 44 43 41 39 36 37 37 31 29 30 28 29 29 27 27 26 27 27 26 26 26 27 28 30 35 36 40 43 40 38 41 46 51 56 62 70 77 83 87 89 91 91 90 88 86
70 66 60 52 45 44 42 40 39 37 36 37 36 35 35 35 35 36 36 38 38 36 35 34 35 36 38 41 43 45 47 49 50 49 50 52 54 56 57 56 54 48 44 46 47 45 43 40 40 41 34 30 32 30 29 30 29 28 27 27 29 32 28 22 24 26 25 28 31 37 40 37 36 34 34 38 42 49 59 66 72 75 75 78 82 83 85 85
70 66 61 52 45 43 41 40 38 36 36 37 36 36 36 36 36 36 36 37 37 37 36 36 37 37 40 45 45 45 47 49 49 49 48 48 48 50 52 54 54 52 48 46 47 48 47 44 42 43 39 34 33 32 31 32 32 31 31 28 30 37 34 21 21 24 23 25 26 33 39 36 36 33 29 31 34 38 46 54 61 63 63 66 70 73 77 82
68 66 60 51 45 43 41 40 37 36 36 37 37 37 37 37 37 36 35 36 36 37 36 37 39 38 43 49 49 47 47 47 48 49 48 46 46 46 47 50 51 52 52 51 50 49 48 46 44 43 41 38 35 33 34 34 34 34 35 35 34 34 33 23 20 23 23 24 23 29 39 36 32 30 27 28 31 34 38 43 48 54 58 63 65 64 67 73
68 64 56 49 47 45 43 41 38 36 37 37 36 35 34 35 36 36 36 37 37 37 35 36 37 37 42 48 50 50 50 50 49 48 47 46 46 46 45 46 48 49 51 54 55 54 51 50 49 47 43 41 39 36 36 37 37 38 35 39 40 33 30 26 22 23 23 24 24 27 36 33 25 23 25 29 33 33 34 37 41 46 51 56 57 57 58 62
65 58 52 48 47 45 43 42 39 38 37 35 32 30 30 31 32 33 35 37 36 35 33 33 34 34 38 43 46 49 51 51 51 50 49 48 47 46 45 46 48 49 51 54 57 59 58 56 53 50 47 44 41 39 42 40 39 42 38 36 38 32 31 31 27 26 25 26 26 27 35 34 24 19 21 26 31 32 34 36 39 41 43 46 47 48 51 54
61 54 48 46 44 42 42 41 39 37 35 32 29 28 29 31 31 29 31 33 34 33 31 32 33 32 36 41 43 46 48 49 50 51 52 52 50 48 47 48 49 50 52 53 55 59 61 61 57 53 51 49 45 43 44 41 38 42 39 35 37 33 32 33 31 30 29 31 30 30 37 35 28 24 20 22 26 31 38 39 38 38 38 40 41 41 44 48
59 52 46 43 39 37 36 36 36 35 32 29 28 28 30 30 29 27 27 29 32 35 34 34 34 33 36 40 41 43 45 47 48 49 51 53 53 51 48 49 52 52 52 52 54 57 59 61 61 56 54 52 50 47 44 42 40 39 37 36 37 36 35 33 32 32 32 34 34 33 35 31 28 29 25 25 26 28 35 39 38 36 34 33 33 33 35 39
52 43 37 36 33 31 30 30 32 32 30 28 27 27 27 28 28 28 29 29 33 36 35 35 35 34 35 35 35 37 40 44 46 47 50 52 53 53 52 52 55 55 53 52 54 56 56 59 60 57 56 55 55 54 50 46 42 40 39 38 36 35 37 35 32 34 34 35 35 34 34 31 32 33 30 30 31 30 31 33 35 35 33 31 29 27 28 30
41 33 31 30 29 27 27 27 29 28 28 27 25 24 25 26 28 29 31 33 34 34 34 34 34 35 36 36 35 35 39 43 45 46 47 50 51 52 54 56 57 56 56 55 54 55 56 56 56 56 56 56 56 56 55 53 49 45 42 41 39 38 38 36 34 36 38 37 35 36 36 34 34 36 35 34 35 37 36 34 34 33 32 30 28 26 26 26
33 30 29 28 27 25 25 26 26 25 26 24 22 23 25 27 30 30 31 33 34 33 35 36 36 38 38 39 39 39 42 45 46 48 47 47 49 50 54 58 60 60 60 60 57 57 57 54 55 57 56 56 57 57 57 57 56 53 48 47 46 43 40 38 37 38 39 38 37 36 36 36 36 36 37 36 37 40 41 39 38 36 33 29 28 27 26 26
31 30 29 29 28 26 26 26 24 24 24 22 22 24 27 30 32 32 32 33 35 36 37 37 39 41 41 42 44 45 47 50 51 52 51 50 51 51 53 58 62 64 65 64 60 60 59 56 56 57 56 57 58 58 59 59 59 58 56 55 52 47 43 40 41 42 40 39 38 37 36 36 38 38 37 37 38 39 40 39 38 37 35 32 29 29 28 27
31 31 31 31 29 28 29 27 25 25 24 24 25 27 29 33 33 34 35 35 37 39 40 41 42 43 46 47 48 50 51 52 54 55 55 56 55 53 53 57 61 65 66 65 64 62 60 59 59 58 57 57 57 59 60 60 60 59 58 57 55 52 47 42 44 45 44 43 40 39 39 37 39 41 39 38 37 37 36 36 35 36 36 34 30 29 29 29
32 32 32 31 29 30 30 27 26 26 26 26 28 30 32 35 36 37 37 38 39 41 43 46 47 47 50 52 53 56 55 54 56 57 58 60 59 57 55 58 61 64 66 67 67 63 60 60 60 59 58 57 57 58 59 60 62 62 59 55 55 55 51 47 47 47 47 46 43 42 39 37 41 44 43 41 37 35 35 34 34 36 36 34 31 29 29 30
33 33 33 30 28 27 26 25 24 24 26 26 27 31 34 35 37 37 37 36 39 43 46 49 53 51 49 51 54 57 57 57 59 59 60 61 62 61 58 59 62 67 70 69 68 66 64 63 61 60 60 59 58 57 58 60 62 63 58 54 57 57 55 53 52 53 51 46 46 46 41 36 40 45 45 44 41 37 35 35 35 35 36 34 31 30 30 30
34 33 30 27 24 22 22 21 21 22 24 24 25 28 32 33 34 34 34 32 38 48 51 49 52 50 46 47 51 53 56 57 58 62 63 62 64 66 64 62 63 67 72 72 71 71 69 67 66 63 62 61 60 58 58 60 62 62 58 57 59 58 58 56 54 58 56 50 49 49 44 40 38 43 47 46 46 44 39 37 37 36 36 35 33 31 31 31
33 30 26 22 21 20 19 19 19 21 22 21 21 24 28 29 29 30 30 31 39 49 49 45 46 45 42 45 47 50 53 53 56 63 67 66 66 69 69 70 69 70 73 72 72 74 74 72 70 67 65 64 61 59 59 59 61 60 59 61 61 60 61 59 60 64 62 59 57 51 49 46 39 45 51 47 48 50 46 41 39 37 37 36 34 33 32 32
29 26 22 20 19 19 19 19 20 20 20 19 17 21 26 26 25 25 25 30 35 40 42 41 40 38 39 41 42 45 47 48 53 58 63 67 68 69 72 73 73 73 75 74 74 76 76 76 74 71 69 67 64 62 61 60 60 59 59 61 60 60 61 62 66 70 70 70 64 55 54 50 43 46 49 46 46 48 46 44 42 40 40 38 37 35 33 33
26 23 21 19 19 19 19 19 19 18 17 16 15 19 25 22 21 20 20 25 29 32 34 34 33 33 34 36 35 38 39 41 46 50 54 60 64 68 71 73 73 73 75 73 73 75 75 76 77 76 74 70 67 66 65 64 62 61 60 59 59 60 59 61 65 70 76 76 65 60 61 57 50 48 47 46 45 43 44 46 44 43 43 42 40 38 36 34
24 21 20 19 18 18 18 18 18 16 15 15 15 19 20 16 16 17 19 24 25 27 30 31 32 31 31 31 30 32 33 32 35 40 45 49 54 60 66 70 70 70 72 72 73 73 73 75 76 77 76 72 68 67 67 66 65 63 61 59 61 59 58 62 63 68 77 72 62 63 66 63 58 52 49 50 47 43 43 44 44 45 45 45 44 42 40 38
22 20 19 18 17 17 17 17 17 15 15 15 14 15 15 11 12 17 22 25 24 28 33 34 34 31 30 31 30 31 31 28 28 32 36 38 43 49 55 64 68 68 68 69 70 69 70 73 74 76 77 74 71 68 66 66 64 63 62 61 61 60 62 66 64 66 68 60 57 60 63 65 63 59 57 55 51 47 44 43 43 44 46 48 48 47 46 44
20 19 18 17 17 17 16 16 15 15 15 14 11 12 11 9 13 21 26 24 26 32 36 34 31 31 30 29 28 30 28 26 26 27 29 31 34 38 41 49 58 62 63 62 63 62 61 65 69 74 76 75 74 72 70 68 65 64 63 61 61 61 66 69 65 63 61 57 55 56 59 61 60 63 63 57 54 53 50 49 46 45 46 48 50 50 49 48
19 18 18 17 17 16 15 15 15 15 14 11 9 10 9 9 18 28 29 28 30 32 32 30 26 26 28 26 28 29 24 25 27 26 28 29 32 35 36 38 42 49 53 52 55 58 56 57 62 67 70 71 71 73 74 72 69 68 67 64 61 61 65 65 62 60 59 57 57 57 60 58 54 60 61 56 57 57 56 56 55 52 50 49 50 51 52 52
18 18 18 17 16 15 14 14 15 14 11 9 11 12 9 8 16 25 29 31 31 29 28 27 24 24 25 25 29 29 24 25 28 28 30 32 33 35 37 36 35 39 43 40 44 50 49 50 55 56 60 63 64 67 70 71 72 71 69 69 68 65 63 62 61 60 57 58 59 57 59 59 57 60 57 54 56 54 54 56 57 58 58 55 53 53 54 55
18 18 17 17 16 14 15 14 13 12 8 9 13 14 15 16 19 26 30 30 30 30 28 25 24 24 25 25 29 31 27 26 28 28 30 33 35 36 38 36 34 36 40 39 40 43 41 43 47 48 50 54 56 60 62 65 71 72 72 74 73 70 68 66 67 65 61 61 59 54 56 60 60 59 55 53 53 52 51 51 52 57 60 61 61 60 60 60
18 18 17 16 15 15 15 12 11 9 7 12 16 18 25 28 26 28 29 26 27 29 25 21 23 26 27 28 29 31 29 26 26 27 29 31 34 37 39 38 35 34 37 39 40 41 38 36 38 39 40 41 45 49 50 52 59 66 72 73 70 72 74 72 72 72 70 69 61 53 55 59 58 58 57 54 53 53 51 50 52 55 58 61 64 66 68 67
19 18 15 15 15 15 14 10 10 9 9 18 25 27 31 30 24 24 24 24 26 26 23 22 24 28 31 31 31 33 32 25 25 27 26 29 34 37 38 40 38 35 36 39 39 41 39 35 33 34 33 33 36 39 41 43 46 53 61 63 64 70 71 69 72 76 77 75 66 56 55 59 60 62 63 59 56 57 55 54 56 57 59 62 64 66 69 69
19 17 16 17 16 14 13 10 10 9 12 22 28 27 29 26 22 22 24 25 25 23 24 25 25 28 32 33 31 33 31 27 26 26 25 32 38 38 37 40 38 35 35 37 38 39 38 35 34 33 31 31 32 34 40 42 40 43 48 52 57 64 66 66 66 69 68 67 67 62 57 64 69 67 67 66 61 61 62 62 63 63 64 65 66 67 68 68
18 18 17 18 17 15 13 10 10 14 19 26 28 27 28 25 21 21 23 25 24 23 25 25 25 28 31 31 28 29 32 32 30 29 30 37 42 40 39 38 37 36 35 34 36 38 36 36 37 34 29 30 33 35 39 41 40 42 45 50 55 58 62 66 64 63 63 61 62 58 55 67 73 66 68 71 65 64 68 68 69 70 71 71 70 69 68 68
17 19 19 17 16 14 11 12 19 24 25 27 29 30 28 22 19 20 21 22 21 22 24 24 24 27 28 27 26 29 33 34 32 33 36 38 40 40 40 39 37 36 35 34 36 36 34 37 40 36 30 30 34 34 32 34 37 40 45 50 54 56 60 66 64 62 64 63 63 60 58 68 71 63 64 68 64 66 70 70 71 72 73 74 73 72 71 70
18 21 19 15 15 12 11 19 28 28 25 26 29 29 25 21 18 19 20 20 20 20 21 23 25 28 30 27 26 28 30 31 33 35 37 38 37 37 37 36 34 33 31 30 32 33 33 35 37 38 35 33 32 30 30 33 33 35 40 44 50 55 60 67 69 66 66 64 64 66 66 70 69 61 60 61 62 64 65 67 69 70 72 73 73 73 72 70
20 21 16 12 12 11 14 22 27 26 25 27 26 24 22 21 20 20 21 22 23 21 21 24 25 27 31 29 26 26 26 29 35 38 38 38 37 34 35 35 33 32 32 30 32 33 33 34 35 35 32 30 30 31 34 37 37 37 38 40 46 51 54 61 65 69 72 65 60 64 68 71 68 60 59 61 63 64 63 64 66 66 67 70 72 73 72 71
21 19 14 11 10 10 15 22 24 24 25 24 23 23 22 22 22 22 23 24 26 24 23 25 24 24 27 28 27 26 25 27 34 38 35 35 34 32 32 32 31 32 32 33 34 31 27 30 34 31 24 23 26 30 34 37 38 40 41 41 45 46 48 50 51 63 74 67 61 66 68 71 68 61 61 64 64 66 65 66 66 64 63 64 67 69 71 71
21 17 13 11 10 11 18 23 24 25 26 25 26 27 25 23 23 24 24 25 26 24 23 23 23 23 24 25 26 27 26 25 29 33 31 30 30 29 27 29 32 33 32 33 31 26 24 28 30 27 23 20 19 24 33 37 36 35 35 37 38 38 42 42 42 56 66 61 64 70 68 70 71 66 66 67 65 67 68 68 69 69 67 67 66 66 67 68
20 17 15 14 13 15 21 24 22 22 25 24 25 27 27 25 24 24 24 24 23 23 23 22 22 22 22 24 27 29 29 25 24 28 30 27 26 26 25 26 29 30 29 28 26 24 25 27 27 27 27 26 26 29 35 38 38 35 32 31 31 32 34 38 42 50 54 55 60 63 64 70 71 68 69 70 68 69 69 70 71 72 72 73 72 71 69 66
19 19 19 18 17 19 21 22 22 22 23 21 22 27 30 30 29 26 23 23 23 23 25 26 26 23 23 25 27 29 30 28 25 28 31 29 28 28 25 24 25 25 25 24 26 27 27 27 31 34 33 33 36 36 36 39 42 41 38 35 33 31 32 38 41 41 46 54 54 55 66 72 68 70 72 71 70 70 69 71 72 73 74 74 74 74 72 68
20 20 21 20 20 23 22 21 26 29 28 26 26 29 31 31 32 30 26 24 24 23 24 27 29 29 28 27 25 26 29 27 26 30 30 29 31 27 22 24 26 25 25 24 26 28 27 28 34 39 39 40 40 38 40 44 45 44 44 41 36 34 34 38 39 36 41 49 44 47 62 63 57 65 68 65 67 69 68 70 71 72 74 73 72 72 70 67
21 22 24 23 26 31 31 29 30 31 31 31 30 31 32 31 32 32 29 27 27 27 25 28 31 31 32 31 27 29 28 20 21 29 30 28 31 27 23 25 27 27 26 25 26 26 25 32 42 44 42 41 41 42 44 45 45 45 44 41 37 35 35 36 38 36 40 45 40 41 51 48 41 50 59 60 63 64 64 67 67 68 69 69 68 67 65 64
20 20 24 27 31 36 35 33 31 30 30 31 29 31 33 32 32 33 31 29 29 29 27 29 33 32 32 32 30 30 30 22 20 29 30 27 28 26 24 26 28 28 25 23 25 25 23 34 46 45 38 34 33 35 35 35 38 39 34 31 30 32 32 32 33 34 36 39 36 36 43 40 33 38 50 59 63 64 65 66 64 64 65 64 64 63 62 61
17 16 18 23 32 37 33 33 34 29 27 28 29 31 33 32 32 33 33 32 31 30 28 30 32 31 32 33 32 31 32 29 27 29 30 27 25 25 25 26 28 28 24 24 27 26 23 28 33 34 33 29 28 32 32 30 33 31 27 24 26 29 31 30 28 30 32 35 35 36 39 37 32 34 43 51 57 61 63 63 62 61 61 60 59 58 59 58
17 17 16 19 30 36 33 32 31 25 25 29 32 33 33 32 33 32 31 31 33 32 30 29 29 28 30 33 33 32 31 31 30 29 29 29 29 29 28 28 27 27 25 25 27 28 26 24 25 30 34 32 33 36 35 32 30 26 23 23 22 24 26 26 26 27 28 32 39 42 42 39 37 37 39 42 46 49 51 53 54 55 56 57 56 55 56 56